This demonstration page uses our WeatherBlox Daily Observations layout. Learn more.

38.89511, -77.03637

Hourly Observations for August 18, 2015

Temp ( °F °C ) Dew Point ( °F °C ) Humidity (%) Winds ( mph kmh ) Pressure ( in mb ) Visibility ( mi km ) Precip ( " mm )
12:52 am 00:52 Mostly Cloudy 77 25 70 21 79 79 S 8 13 30.06 1018 10 16.09344 0 0
1:52 am 01:52 Mostly Cloudy 75 24 70 21 83 83 S 6 9 30.06 1018 10 16.09344 0 0
2:52 am 02:52 Cloudy 75 24 70 21 83 83 SSW 6 9 30.03 1017 10 16.09344 0 0
3:52 am 03:52 Cloudy 73 23 70 21 89 89 Calm 30.03 1017 10 16.09344 0 0
4:52 am 04:52 Cloudy 73 23 72 22 94 94 ESE 5 7 30.03 1017 10 16.09344 0 0
5:52 am 05:52 Mostly Cloudy 73 23 72 22 94 94 SE 3 6 30.03 1017 10 16.09344 0 0
6:52 am 06:52 Mostly Cloudy 73 23 72 22 94 94 SE 5 7 30.03 1017 10 16.09344 0 0
7:52 am 07:52 Cloudy 75 24 72 22 89 89 Calm 30.03 1017 10 16.09344 0 0
8:52 am 08:52 Cloudy 77 25 72 22 83 83 S 3 6 30.03 1017 10 16.09344 0 0
9:52 am 09:52 Cloudy 82 28 72 22 70 70 Calm 30.03 1017 10 16.09344 0 0
10:52 am 10:52 Cloudy 84 29 73 23 70 70 Calm 30.03 1017 10 16.09344 0 0
11:52 am 11:52 Cloudy 88 31 72 22 59 59 Calm 30 1016 10 16.09344 0 0
12:52 pm 12:52 Cloudy 90 32 70 21 52 52 S 10 17 30 1016 10 16.09344 0 0
1:52 pm 13:52 Cloudy 90 32 72 22 55 55 S 10 17 30 1016 10 16.09344 0 0
2:52 pm 14:52 Cloudy 88 31 70 21 55 55 S 14 22 29.97 1015 10 16.09344 0 0
3:52 pm 15:52 Cloudy 88 31 73 23 62 62 SSW 10 17 29.97 1015 10 16.09344 0 0
4:52 pm 16:52 Mostly Cloudy 88 31 72 22 59 59 SSW 9 15 29.94 1014 10 16.09344 0 0
5:52 pm 17:52 Mostly Cloudy 86 30 70 21 59 59 S 8 13 29.94 1014 10 16.09344 0 0
6:52 pm 18:52 Mostly Cloudy 84 29 66 19 55 55 SSW 12 19 29.94 1014 10 16.09344 0 0
7:52 pm 19:52 Mostly Cloudy 82 28 70 21 66 66 S 10 17 29.94 1014 10 16.09344 0 0
8:52 pm 20:52 Mostly Cloudy 82 28 68 20 62 62 S 9 15 29.97 1015 10 16.09344 0 0
9:52 pm 21:52 Mostly Cloudy 81 27 72 22 74 74 S 9 15 29.97 1015 10 16.09344 0 0
10:52 pm 22:52 Mostly Cloudy 79 26 72 22 79 79 S 8 13 29.97 1015 10 16.09344 0 0
11:52 pm 23:52 Mostly Cloudy 79 26 73 23 84 84 S 9 15 29.97 1015 10 16.09344 0 0

Powered by AerisWeather